Location: Detroit
(42.3310°N, 83.0460°W)
Time: 07:27:14
(UTC-04:00)

Explorer 11/Cluster Stage 4 - Pass Details

Date: 14 February 2023
Orbit: 466 x 1241 km, 28.8° (Epoch: 02 April)

Event Time Altitude Azimuth Distance (km) Brightness Sun altitude
Exits shadow 06:00:51 10° 223° (SW) 2,854 9.1 -17.1°
Reaches altitude 10° 06:01:04 10° 222° (SW) 2,836 9.1 -17.0°
Maximum altitude 06:03:30 12° 201° (SSW) 2,775 9.2 -16.6°
Drops below altitude 10° 06:06:04 10° 181° (S) 3,003 9.6 -16.1°
Sets 06:11:17 0° 153° (SSE) 4,088 10.7 -15.2°
